Starlink 35560

operational
NORAD ID: 66058 Int'l Des: 2025-235 Owner: SPXS Country: US Constellation: starlink
NOTLE

Über Starlink 35560

Beschreibung wird geladen...

Live-Position

3D-Globus wird geladen...

Nächste Überflüge

Höhenverlauf

Altitude vs Time

uPlot chart will show altitude changes over time

Zweizeiliger Elementsatz

1 66058C 25235B 25293.06715278 .00528440 00000+0 78805-3 0 2939
2 66058 53.1589 188.8587 0006175 293.3752 197.6278 16.03510543 12
Epoch: 20. Okt. 2025 • Age: 20 hours

Aktueller Status

Höhe 265.5 km
Geschwindigkeit 7.75 km/s
Subsatellitenpunkt 14.58°N, 28.99°E
Startdatum 19. Okt. 2025
Alter 1 days
Typ internet

Technische Details

Klassifizierung Payload
Masse 575.00 kg
Trockenmasse 530.00 kg
Gesamtmasse 575.00 kg
Länge 0.30 m
Durchmesser 4.10 m
Spannweite 29.00 m
Form Box + pan
Hersteller SPXS
Bus-Typ Starlink V2MO
Phasenstatus In Orbit
Besitzer/Staat SPXS/US

Große Konstellationen

Loading constellations...